Weather History for Lancaster, OH

Change the Weather History Date:

Friday, January 18, 2013

  Actual Average Record
Temperature  
Mean Temperature 26 °F -  
Max Temperature 36 °F 34 °F 61 °F (1942)
Min Temperature 16 °F 16 °F -20 °F (1977)
Degree Days  
Heating Degree Days 39    
Moisture  
Dew Point 15 °F    
Average Humidity 61    
Maximum Humidity 81    
Minimum Humidity 50    
Precipitation  
Precipitation 0.00 in - - ()
Sea Level Pressure  
Sea Level Pressure 30.43 in    
Wind  
Wind Speed 9 mph (SW)    
Max Wind Speed 14 mph    
Max Gust Speed 22 mph    
Visibility 10 miles    
Events      
Averages and records for this station are not official NWS values.
T = Trace of Precipitation, MM = Missing Value Source: NWS Daily Summary

Daily Weather History Graph

Daily Weather History Graph

Search for Another Location

Airport:

Trip Planner

Search our weather history database for the weather conditions in past years. The results will help you decide how hot, cold, wet, or windy it might be!

Date:

Astronomy

Jan. 18, 2013 Rise Set
Actual Time 7:48 AM EST 5:34 PM EST
Civil Twilight 7:19 AM EST 6:03 PM EST
Nautical Twilight 6:46 AM EST 6:36 PM EST
Astronomical Twilight 6:13 AM EST 7:08 PM EST
Moon 11:27 AM EST 12:22 AM EST
Length of Visible Light 10h 44m
Length of Day
9h 45m
Waxing Crescent, 47% of the Moon is Illuminated
Jan 18
Waxing Crescent
Jan 18
First Quarter
Jan 26
Full
Feb 3
Last Quarter
Feb 10
New

Hourly Weather History & Observations

Time (EST) Temp. Windchill Dew Point Humidity Pressure Visibility Wind Dir Wind Speed Gust Speed Precip Events Conditions
12:20 AM 26.6 °F 15.7 °F 17.6 °F 69% 30.33 in 10.0 mi NNW 12.7 mph - N/A   Scattered Clouds
12:53 AM 25.0 °F 13.1 °F 15.1 °F 66% 30.38 in 10.0 mi NW 13.8 mph - N/A   Clear
1:53 AM 24.1 °F 12.5 °F 10.0 °F 55% 30.43 in 10.0 mi NNW 12.7 mph - N/A   Clear
2:53 AM 21.9 °F 13.4 °F 10.9 °F 63% 30.46 in 10.0 mi NNW 6.9 mph - N/A   Clear
3:53 AM 21.0 °F 16.2 °F 10.9 °F 65% 30.48 in 10.0 mi NW 3.5 mph - N/A   Clear
4:53 AM 18.0 °F - 10.0 °F 71% 30.48 in 10.0 mi Calm Calm - N/A   Clear
5:53 AM 17.1 °F - 10.9 °F 77% 30.50 in 10.0 mi Calm Calm - N/A   Clear
6:53 AM 18.0 °F - 12.0 °F 78% 30.51 in 10.0 mi Calm Calm - N/A   Clear
7:53 AM 16.0 °F - 10.9 °F 81% 30.52 in 10.0 mi Calm Calm - N/A   Clear
8:53 AM 21.9 °F - 15.1 °F 75% 30.53 in 10.0 mi Calm Calm - N/A   Clear
9:53 AM 25.0 °F 19.3 °F 15.1 °F 66% 30.55 in 10.0 mi WSW 4.6 mph - N/A   Clear
10:53 AM 28.0 °F 22.8 °F 14.0 °F 56% 30.54 in 10.0 mi Variable 4.6 mph - N/A   Clear
11:53 AM 28.9 °F 20.4 °F 14.0 °F 54% 30.52 in 10.0 mi SW 9.2 mph - N/A   Clear
12:53 PM 30.9 °F 22.8 °F 15.1 °F 52% 30.49 in 10.0 mi SW 9.2 mph - N/A   Clear
1:53 PM 32.0 °F 24.2 °F 17.1 °F 54% 30.46 in 10.0 mi SSW 9.2 mph - N/A   Clear
2:53 PM 34.0 °F 24.6 °F 17.1 °F 50% 30.44 in 10.0 mi SSW 13.8 mph - N/A   Clear
3:53 PM 34.0 °F 25.0 °F 18.0 °F 52% 30.43 in 10.0 mi South 12.7 mph - N/A   Clear
4:53 PM 33.1 °F 23.9 °F 17.1 °F 52% 30.42 in 10.0 mi SSW 12.7 mph - N/A   Clear
5:53 PM 32.0 °F 24.2 °F 18.0 °F 56% 30.40 in 10.0 mi South 9.2 mph - N/A   Clear
6:53 PM 32.0 °F 24.2 °F 18.0 °F 56% 30.38 in 10.0 mi South 9.2 mph - N/A   Clear
7:53 PM 32.0 °F 22.5 °F 19.0 °F 59% 30.36 in 10.0 mi SSW 12.7 mph - N/A   Clear
8:53 PM 33.1 °F 25.5 °F 19.9 °F 59% 30.34 in 10.0 mi SSW 9.2 mph - N/A   Clear
9:53 PM 34.0 °F 25.5 °F 21.0 °F 59% 30.31 in 10.0 mi SSW 11.5 mph - N/A   Clear
10:53 PM 36.0 °F 28.0 °F 19.9 °F 52% 30.27 in 10.0 mi SSW 11.5 mph 21.9 mph N/A   Clear
11:53 PM 36.0 °F 27.5 °F 19.0 °F 50% 30.25 in 10.0 mi SSW 12.7 mph 21.9 mph N/A   Clear